This is the latest recevied weather packets stored in our database for station/object LU3HGB-WX. If no packets are shown the sender has not sent any weather packets the latest 10 day(s).
| Time | Temp. | Humidity | Pressure | Rain* | Wind** | Luminosity | Snow |
|---|---|---|---|---|---|---|---|
| 1788177760 | 7.22° C | 85% | 1014 hPa | 0 mm | - | 191 W/m² | - |
| 1788177460 | 6.67° C | 86% | 1014 hPa | 0 mm | - | 67 W/m² | - |
| 1788177160 | 6.67° C | 86% | 1014 hPa | 0 mm | - | 64 W/m² | - |
| 1788176861 | 6.11° C | 87% | 1014 hPa | 0 mm | - | 75 W/m² | - |
| 1788176559 | 5.56° C | 89% | 1014 hPa | 0 mm | - | 86 W/m² | - |
| 1788176259 | 4.44° C | 95% | 1014 hPa | 0 mm | - | 109 W/m² | - |
| 1788175960 | 3.89° C | 96% | 1014 hPa | 0 mm | - | 90 W/m² | - |
| 1788175660 | 3.33° C | 96% | 1014 hPa | 0 mm | - | 77 W/m² | - |
| 1788175360 | 2.78° C | 96% | 1014 hPa | 0 mm | - | 60 W/m² | - |
| 1788175060 | 2.22° C | 95% | 1014 hPa | 0 mm | - | 50 W/m² | - |
| 1788174759 | 2.22° C | 94% | 1014 hPa | 0 mm | - | 41 W/m² | - |
| 1788174462 | 2.78° C | 93% | 1014 hPa | 0 mm | - | 32 W/m² | - |
| 1788174159 | 2.78° C | 94% | 1014 hPa | 0 mm | - | 27 W/m² | - |
| 1788173859 | 2.22° C | 95% | 1014 hPa | 0 mm | - | 21 W/m² | - |
| 1788173559 | 2.22° C | 95% | 1014 hPa | 0 mm | - | 16 W/m² | - |
| 1788173277 | 2.22° C | 95% | 1014 hPa | 0 mm | - | 12 W/m² | - |
| 1788172960 | 2.22° C | 94% | 1014 hPa | 0 mm | - | 7 W/m² | - |
| 1788172662 | 2.78° C | 93% | 1014 hPa | 0 mm | - | 3 W/m² | - |
| 1788172360 | 2.78° C | 95% | 1014 hPa | 0 mm | - | 2 W/m² | - |
| 1788172062 | 2.22° C | 94% | 1014 hPa | 0 mm | - | 1 W/m² | - |
| 1788171759 | 2.78° C | 93% | 1014 hPa | 0 mm | - | 0 W/m² | - |
| 1788171459 | 2.22° C | 94% | 1014 hPa | 0 mm | - | 0 W/m² | - |
| 1788171159 | 2.78° C | 93% | 1014 hPa | 0 mm | - | 0 W/m² | - |
| 1788170860 | 2.78° C | 94% | 1014 hPa | 0 mm | - | 0 W/m² | - |
| 1788170560 | 2.22° C | 94% | 1014 hPa | 0 mm | - | 0 W/m² | - |
* Rain latest hour (hover to see other rain measurements)
** Current wind speed in m/s (hover to see current wind gust speed)